Location: Newark
(46.3567°N, 6.1428°E)
Time: 14:57:11
(UTC+00:00)

Envisat - Visible Passes

Search period start: 20 August 2019 00:00
Search period end: 30 August 2019 00:00
Orbit: 764 x 766 km, 98.1° (Epoch: 20 August)

Date Brightness Start Highest point End Pass type
(mag) Time Alt. Az. Time Alt. Az. Time Alt. Az.
22 Aug 5.8 19:02:48 10° SW 19:06:22 19° W 19:09:56 10° NW visible
24 Aug 6.3 19:30:59 10° W 19:32:14 11° W 19:33:28 10° WNW visible
25 Aug 5.6 18:50:58 10° SW 18:55:00 23° W 18:59:03 10° NW visible
27 Aug 6.0 19:18:14 10° WSW 19:20:49 14° W 19:23:24 10° WNW visible
